Sand Point, AK

3:23 PM AKST on February 25, 2017 (GMT -0900)
Sand Point

Weather History for PASD - August, 2014

Change the Weather History Date:

Sunday, August 31, 2014

  Actual Average Record
Temperature  
Mean Temperature 54 °F -  
Max Temperature 60 °F 53 °F 65 °F (1987)
Min Temperature 48 °F 47 °F 41 °F (1989)
Degree Days  
Heating Degree Days 11    
Growing Degree Days 4 (Base 50)    
Moisture  
Dew Point 49 °F    
Average Humidity 80    
Maximum Humidity 100    
Minimum Humidity 59    
Precipitation  
Precipitation 0.00 in - - ()
Sea Level Pressure  
Sea Level Pressure 29.92 in    
Wind  
Wind Speed 6 mph (NNW)    
Max Wind Speed 17 mph    
Max Gust Speed 17 mph    
Visibility 10 miles    
Events      
Averages and records for this station are not official NWS values.
T = Trace of Precipitation, MM = Missing Value Source: NWS Daily Summary

Daily Weather History Graph

Daily Weather History Graph

Search for Another Location

Airport or City:

Trip Planner

Search our weather history database for the weather conditions in past years. The results will help you decide how hot, cold, wet, or windy it might be!

Date:

Astronomy

Aug. 31, 2014 Rise Set
Actual Time 7:46 AM AKDT 9:36 PM AKDT
Civil Twilight 7:07 AM AKDT 10:15 PM AKDT
Nautical Twilight 6:18 AM AKDT 11:03 PM AKDT
Astronomical Twilight 5:22 AM AKDT 11:59 PM AKDT
Moon 2:48 PM AKDT (8/31) 11:54 PM AKDT (8/31)
Length of Visible Light 15h 07m
Length of Day
13h 50m
Waxing Crescent, 33% of the Moon is Illuminated
Aug 31
Waxing Crescent
Sep 2
First Quarter
Sep 8
Full
Sep 15
Last Quarter
Sep 23
New

Hourly Weather History & Observations

Time (AKDT) Temp. Dew Point Humidity Pressure Visibility Wind Dir Wind Speed Gust Speed Precip Events Conditions
12:16 AM 53.6 °F 51.8 °F 94% 29.75 in 10.0 mi WNW 4.6 mph - N/A   Scattered Clouds
12:36 AM 53.6 °F 51.8 °F 94% 29.75 in 10.0 mi NE 3.5 mph - N/A   Clear
12:56 AM 53.6 °F 51.8 °F 94% 29.76 in 10.0 mi NNW 5.8 mph - N/A   Clear
1:16 AM 53.6 °F 51.8 °F 94% 29.76 in 10.0 mi NW 5.8 mph - N/A   Clear
1:36 AM 53.6 °F 51.8 °F 94% 29.77 in 10.0 mi NNW 5.8 mph - N/A   Clear
1:56 AM 53.6 °F 51.8 °F 94% 29.78 in 10.0 mi WNW 8.1 mph - N/A   Mostly Cloudy
2:16 AM 53.6 °F 51.8 °F 94% 29.79 in 10.0 mi Calm Calm - N/A   Overcast
2:36 AM 53.6 °F 51.8 °F 94% 29.79 in 10.0 mi West 4.6 mph - N/A   Overcast
2:56 AM 53.6 °F 51.8 °F 94% 29.80 in 10.0 mi WNW 4.6 mph - N/A   Partly Cloudy
3:16 AM 53.6 °F 51.8 °F 94% 29.80 in 10.0 mi NW 3.5 mph - N/A   Clear
3:36 AM 51.8 °F 51.8 °F 100% 29.81 in 10.0 mi West 3.5 mph - N/A   Clear
3:56 AM 51.8 °F 51.8 °F 100% 29.81 in 10.0 mi Calm Calm - N/A   Clear
4:16 AM 50.0 °F 50.0 °F 100% 29.81 in 10.0 mi Calm Calm - N/A   Clear
4:36 AM 51.8 °F 50.0 °F 94% 29.82 in 10.0 mi Calm Calm - N/A   Clear
4:56 AM 50.0 °F 48.2 °F 94% 29.83 in 10.0 mi Calm Calm - N/A   Clear
5:16 AM 51.8 °F 48.2 °F 88% 29.83 in 10.0 mi North 3.5 mph - N/A   Mostly Cloudy
5:36 AM 51.8 °F 48.2 °F 88% 29.84 in 10.0 mi Calm Calm - N/A   Overcast
5:56 AM 51.8 °F 48.2 °F 88% 29.84 in 10.0 mi Calm Calm - N/A   Mostly Cloudy
6:16 AM 48.2 °F 48.2 °F 100% 29.85 in 10.0 mi NNE 3.5 mph - N/A   Mostly Cloudy
6:36 AM 51.8 °F 48.2 °F 88% 29.85 in 10.0 mi Calm Calm - N/A   Partly Cloudy
6:56 AM 50.0 °F 48.2 °F 94% 29.85 in 10.0 mi NNE 3.5 mph - N/A   Scattered Clouds
7:16 AM 48.2 °F 48.2 °F 100% 29.86 in 10.0 mi Calm Calm - N/A   Scattered Clouds
7:36 AM 50.0 °F 48.2 °F 94% 29.86 in 10.0 mi Calm Calm - N/A   Scattered Clouds
7:56 AM 50.0 °F 48.2 °F 94% 29.87 in 10.0 mi Calm Calm - N/A   Scattered Clouds
8:16 AM 51.8 °F 48.2 °F 88% 29.87 in 10.0 mi NNE 3.5 mph - N/A   Scattered Clouds
8:36 AM 51.8 °F 48.2 °F 88% 29.88 in 10.0 mi NW 4.6 mph - N/A   Scattered Clouds
8:56 AM 51.8 °F 50.0 °F 94% 29.88 in 10.0 mi NW 3.5 mph - N/A   Mostly Cloudy
9:16 AM 51.8 °F 50.0 °F 94% 29.89 in 10.0 mi NW 4.6 mph - N/A   Mostly Cloudy
9:36 AM 53.6 °F 50.0 °F 88% 29.90 in 10.0 mi NNW 5.8 mph - N/A   Mostly Cloudy
9:56 AM 55.4 °F 50.0 °F 82% 29.90 in 10.0 mi NW 8.1 mph - N/A   Mostly Cloudy
10:16 AM 55.4 °F 48.2 °F 77% 29.91 in 10.0 mi NNW 11.5 mph - N/A   Mostly Cloudy
10:36 AM 55.4 °F 48.2 °F 77% 29.92 in 10.0 mi NW 9.2 mph - N/A   Mostly Cloudy
10:56 AM 55.4 °F 48.2 °F 77% 29.92 in 10.0 mi NNW 8.1 mph - N/A   Mostly Cloudy
11:16 AM 55.4 °F 48.2 °F 77% 29.92 in 10.0 mi North 11.5 mph - N/A   Mostly Cloudy
11:36 AM 55.4 °F 48.2 °F 77% 29.93 in 10.0 mi NNW 11.5 mph - N/A   Mostly Cloudy
11:56 AM 55.4 °F 48.2 °F 77% 29.93 in 10.0 mi NNW 10.4 mph - N/A   Mostly Cloudy
12:16 PM 57.2 °F 48.2 °F 72% 29.93 in 10.0 mi North 10.4 mph - N/A   Mostly Cloudy
12:36 PM 57.2 °F 48.2 °F 72% 29.94 in 10.0 mi North 12.7 mph - N/A   Mostly Cloudy
12:56 PM 57.2 °F 48.2 °F 72% 29.95 in 10.0 mi North 10.4 mph - N/A   Mostly Cloudy
1:16 PM 57.2 °F 48.2 °F 72% 29.95 in 10.0 mi North 8.1 mph - N/A   Mostly Cloudy
1:36 PM 57.2 °F 48.2 °F 72% 29.95 in 10.0 mi NNW 9.2 mph - N/A   Mostly Cloudy
1:56 PM 59.0 °F 48.2 °F 67% 29.96 in 10.0 mi NNW 11.5 mph - N/A   Mostly Cloudy
2:16 PM 59.0 °F 48.2 °F 67% 29.96 in 10.0 mi NNW 11.5 mph - N/A   Mostly Cloudy
2:36 PM 59.0 °F 48.2 °F 67% 29.97 in 10.0 mi NNW 12.7 mph - N/A   Mostly Cloudy
2:56 PM 59.0 °F 48.2 °F 67% 29.97 in 10.0 mi NNW 10.4 mph - N/A   Mostly Cloudy
3:16 PM 59.0 °F 48.2 °F 67% 29.97 in 10.0 mi NNW 11.5 mph - N/A   Mostly Cloudy
3:36 PM 59.0 °F 50.0 °F 72% 29.97 in 10.0 mi NNW 9.2 mph - N/A   Mostly Cloudy
3:56 PM 59.0 °F 50.0 °F 72% 29.96 in 10.0 mi North 10.4 mph - N/A   Mostly Cloudy
4:16 PM 60.8 °F 50.0 °F 68% 29.98 in 10.0 mi NNW 9.2 mph - N/A   Mostly Cloudy
4:36 PM 60.8 °F 48.2 °F 63% 29.98 in 10.0 mi NNW 8.1 mph - N/A   Mostly Cloudy
4:56 PM 59.0 °F 48.2 °F 67% 29.97 in 10.0 mi NNW 9.2 mph - N/A   Mostly Cloudy
5:16 PM 60.8 °F 46.4 °F 59% 29.99 in 10.0 mi NNW 9.2 mph - N/A   Mostly Cloudy
5:36 PM 60.8 °F 48.2 °F 63% 29.99 in 10.0 mi NNW 8.1 mph - N/A   Mostly Cloudy
5:56 PM 60.8 °F 48.2 °F 63% 30.00 in 10.0 mi NNW 11.5 mph - N/A   Mostly Cloudy
6:16 PM 60.8 °F 48.2 °F 63% 30.00 in 10.0 mi North 9.2 mph - N/A   Mostly Cloudy
6:36 PM 59.0 °F 46.4 °F 63% 30.00 in 10.0 mi North 9.2 mph - N/A   Mostly Cloudy
6:56 PM 59.0 °F 46.4 °F 63% 29.99 in 10.0 mi North 10.4 mph 17.3 mph N/A   Scattered Clouds
7:16 PM 59.0 °F 44.6 °F 59% 29.99 in 10.0 mi North 13.8 mph - N/A   Partly Cloudy
7:36 PM 57.2 °F 44.6 °F 63% 30.02 in 10.0 mi North 11.5 mph - N/A   Clear
7:56 PM 57.2 °F 44.6 °F 63% 30.03 in 10.0 mi North 12.7 mph - N/A   Clear
8:16 PM 57.2 °F 46.4 °F 67% 30.04 in 10.0 mi North 8.1 mph - N/A   Clear
8:36 PM 57.2 °F 46.4 °F 67% 30.04 in 10.0 mi North 9.2 mph - N/A   Clear
8:56 PM 57.2 °F 44.6 °F 63% 30.04 in 10.0 mi NNW 11.5 mph - N/A   Clear
9:16 PM 55.4 °F 46.4 °F 72% 30.05 in 10.0 mi North 11.5 mph - N/A   Clear
9:36 PM 55.4 °F 46.4 °F 72% 30.05 in 10.0 mi NNW 17.3 mph - N/A   Clear
9:56 PM 55.4 °F 46.4 °F 72% 30.06 in 10.0 mi NNW 13.8 mph - N/A   Clear
10:16 PM 55.4 °F 46.4 °F 72% 30.07 in 10.0 mi NNW 16.1 mph - N/A   Clear
10:36 PM 53.6 °F 48.2 °F 82% 30.08 in 10.0 mi NNW 12.7 mph - N/A   Clear
10:56 PM 53.6 °F 48.2 °F 82% 30.09 in 10.0 mi NNW 12.7 mph - N/A   Clear
11:16 PM 53.6 °F 46.4 °F 77% 30.10 in 10.0 mi North 8.1 mph - N/A   Clear
11:36 PM 53.6 °F 46.4 °F 77% 30.10 in 10.0 mi North 8.1 mph - N/A   Clear
11:56 PM 53.6 °F 46.4 °F 77% 30.11 in 10.0 mi North 4.6 mph - N/A   Clear